| time (UTC) | temp F | wind direction | speed MPH | gust MPH | rain 1hr in | rain 24hr in | rain mn in | humidity % | barometer mb |
| 20260510195403 | 48 | 54 | 0.0 | 3.0 | 0.00 | 0.00 | 0.00 | 64 | 1015.7 |
| 20260510194904 | 48 | 67 | 1.0 | 6.0 | 0.00 | 0.00 | 0.00 | 62 | 1015.8 |
| 20260510194404 | 48 | 47 | 2.0 | 6.0 | 0.00 | 0.00 | 0.00 | 62 | 1015.8 |
| 20260510193903 | 48 | 60 | 1.0 | 3.0 | 0.00 | 0.00 | 0.00 | 62 | 1015.9 |
| 20260510192904 | 49 | 69 | 2.0 | 6.0 | 0.00 | 0.00 | 0.00 | 60 | 1015.9 |
| 20260510191904 | 49 | 56 | 2.0 | 3.0 | 0.00 | 0.00 | 0.00 | 59 | 1015.9 |
| 20260510191403 | 50 | 46 | 1.0 | 7.0 | 0.00 | 0.00 | 0.00 | 59 | 1016.0 |
| 20260510190905 | 50 | 61 | 1.0 | 7.0 | 0.00 | 0.00 | 0.00 | 58 | 1016.0 |
| 20260510190405 | 50 | 60 | 2.0 | 7.0 | 0.00 | 0.00 | 0.00 | 58 | 1016.0 |
| 20260510185905 | 51 | 54 | 3.0 | 8.0 | 0.00 | 0.00 | 0.00 | 58 | 1016.1 |
| 20260510185405 | 51 | 57 | 3.0 | 9.0 | 0.00 | 0.00 | 0.00 | 57 | 1016.1 |
| 20260510184906 | 51 | 55 | 3.0 | 9.0 | 0.00 | 0.00 | 0.00 | 56 | 1016.1 |
| 20260510184404 | 52 | 70 | 3.0 | 9.0 | 0.00 | 0.00 | 0.00 | 55 | 1016.2 |
| 20260510183905 | 52 | 56 | 3.0 | 10.0 | 0.00 | 0.00 | 0.00 | 55 | 1016.2 |
| 20260510183405 | 53 | 57 | 3.0 | 10.0 | 0.00 | 0.00 | 0.00 | 55 | 1016.2 |
| 20260510182905 | 53 | 59 | 3.0 | 9.0 | 0.00 | 0.00 | 0.00 | 53 | 1016.1 |
| 20260510182405 | 54 | 53 | 5.0 | 12.0 | 0.00 | 0.00 | 0.00 | 52 | 1016.1 |
| 20260510180905 | 57 | 63 | 3.0 | 10.0 | 0.00 | 0.00 | 0.00 | 48 | 1016.1 |
| 20260510180405 | 58 | 87 | 2.0 | 10.0 | 0.00 | 0.00 | 0.00 | 47 | 1016.0 |
| 20260510175905 | 59 | 61 | 3.0 | 10.0 | 0.00 | 0.00 | 0.00 | 45 | 1016.1 |
| 20260510175405 | 60 | 65 | 3.0 | 10.0 | 0.00 | 0.00 | 0.00 | 44 | 1016.0 |
| 20260510174405 | 61 | 44 | 5.0 | 12.0 | 0.00 | 0.00 | 0.00 | 44 | 1016.1 |
| 20260510173905 | 61 | 64 | 5.0 | 14.0 | 0.00 | 0.00 | 0.00 | 44 | 1016.1 |
| 20260510173404 | 61 | 52 | 3.0 | 14.0 | 0.00 | 0.00 | 0.00 | 44 | 1016.1 |
| 20260510172905 | 61 | 62 | 4.0 | 13.0 | 0.00 | 0.00 | 0.00 | 45 | 1016.2 |
| 20260510172406 | 61 | 35 | 4.0 | 13.0 | 0.00 | 0.00 | 0.00 | 44 | 1016.2 |
| 20260510171905 | 61 | 58 | 3.0 | 8.0 | 0.00 | 0.00 | 0.00 | 46 | 1016.2 |
| 20260510171405 | 60 | 41 | 3.0 | 9.0 | 0.00 | 0.00 | 0.00 | 46 | 1016.3 |
| 20260510170905 | 61 | 66 | 3.0 | 10.0 | 0.00 | 0.00 | 0.00 | 45 | 1016.3 |
| 20260510170405 | 61 | 42 | 4.0 | 12.0 | 0.00 | 0.00 | 0.00 | 46 | 1016.4 |
| 20260510165905 | 60 | 75 | 5.0 | 12.0 | 0.00 | 0.00 | 0.00 | 46 | 1016.4 |
| 20260510165404 | 60 | 57 | 5.0 | 12.0 | 0.00 | 0.00 | 0.00 | 47 | 1016.4 |
| 20260510164905 | 61 | 49 | 3.0 | 10.0 | 0.00 | 0.00 | 0.00 | 46 | 1016.5 |
| 20260510163905 | 60 | 49 | 4.0 | 12.0 | 0.00 | 0.00 | 0.00 | 48 | 1016.6 |
| 20260510163405 | 60 | 56 | 4.0 | 12.0 | 0.00 | 0.00 | 0.00 | 47 | 1016.7 |
| 20260510162905 | 60 | 43 | 3.0 | 9.0 | 0.00 | 0.00 | 0.00 | 46 | 1016.7 |
| 20260510162405 | 61 | 67 | 2.0 | 12.0 | 0.00 | 0.00 | 0.00 | 47 | 1016.8 |
| 20260510161905 | 61 | 67 | 3.0 | 12.0 | 0.00 | 0.00 | 0.00 | 45 | 1016.9 |
| 20260510160905 | 61 | 34 | 3.0 | 9.0 | 0.00 | 0.00 | 0.00 | 46 | 1016.8 |
| 20260510160405 | 61 | 64 | 3.0 | 10.0 | 0.00 | 0.00 | 0.00 | 47 | 1016.8 |
| 20260510155405 | 60 | 60 | 3.0 | 12.0 | 0.00 | 0.00 | 0.00 | 48 | 1017.1 |
| 20260510154906 | 60 | 59 | 5.0 | 12.0 | 0.00 | 0.00 | 0.00 | 45 | 1017.2 |
| 20260510154405 | 61 | 62 | 4.0 | 12.0 | 0.00 | 0.00 | 0.00 | 47 | 1017.1 |
| 20260510153405 | 62 | 62 | 4.0 | 13.0 | 0.00 | 0.00 | 0.00 | 44 | 1017.1 |
| 20260510152904 | 62 | 46 | 5.0 | 12.0 | 0.00 | 0.00 | 0.00 | 45 | 1017.2 |
| 20260510152405 | 61 | 49 | 3.0 | 10.0 | 0.00 | 0.00 | 0.00 | 47 | 1017.2 |
| 20260510151904 | 61 | 65 | 4.0 | 16.0 | 0.00 | 0.00 | 0.00 | 46 | 1017.2 |
| 20260510151405 | 61 | 46 | 5.0 | 16.0 | 0.00 | 0.00 | 0.00 | 45 | 1017.2 |
| 20260510150905 | 61 | 53 | 3.0 | 10.0 | 0.00 | 0.00 | 0.00 | 45 | 1017.3 |
| 20260510150404 | 62 | 72 | 1.0 | 9.0 | 0.00 | 0.00 | 0.00 | 44 | 1017.4 |
| 20260510145904 | 63 | 0 | 0.0 | 0.0 | 0.00 | 0.00 | 0.00 | 45 | 1017.4 |
| 20260510145405 | 63 | 0 | 0.0 | 0.0 | 0.00 | 0.00 | 0.00 | 45 | 1017.5 |
| 20260510144905 | 63 | 0 | 0.0 | 0.0 | 0.00 | 0.00 | 0.00 | 45 | 1017.4 |
| 20260510143905 | 63 | 0 | 0.0 | 0.0 | 0.00 | 0.00 | 0.00 | 45 | 1017.5 |
| 20260510142405 | 63 | 0 | 0.0 | 6.0 | 0.00 | 0.00 | 0.00 | 45 | 1017.6 |
| 20260510141405 | 63 | 15 | 6.0 | 7.0 | 0.00 | 0.00 | 0.00 | 45 | 1017.7 |
| 20260510140905 | 63 | 15 | 6.0 | 13.0 | 0.00 | 0.00 | 0.00 | 45 | 1017.6 |
| 20260510140405 | 63 | 40 | 7.0 | 13.0 | 0.00 | 0.00 | 0.00 | 45 | 1017.8 |
| 20260510135904 | 63 | 50 | 5.0 | 9.0 | 0.00 | 0.00 | 0.00 | 44 | 1017.7 |
| 20260510134905 | 62 | 75 | 6.0 | 8.0 | 0.00 | 0.00 | 0.00 | 46 | 1017.8 |
| 20260510134407 | 62 | 49 | 8.0 | 8.0 | 0.00 | 0.00 | 0.00 | 46 | 1017.7 |
| 20260510133905 | 62 | 49 | 8.0 | 16.0 | 0.00 | 0.00 | 0.00 | 46 | 1018.0 |
| 20260510133408 | 61 | 32 | 3.0 | 16.0 | 0.00 | 0.00 | 0.00 | 47 | 1017.9 |
| 20260510132905 | 61 | 28 | 6.0 | 16.0 | 0.00 | 0.00 | 0.00 | 47 | 1017.9 |
| 20260510131905 | 60 | 43 | 4.0 | 12.0 | 0.00 | 0.00 | 0.00 | 51 | 1018.0 |
| 20260510131405 | 60 | 73 | 5.0 | 12.0 | 0.00 | 0.00 | 0.00 | 50 | 1018.2 |
| 20260510130905 | 60 | 74 | 5.0 | 12.0 | 0.00 | 0.00 | 0.00 | 51 | 1018.2 |
| 20260510130404 | 60 | 45 | 4.0 | 15.0 | 0.00 | 0.00 | 0.00 | 51 | 1018.2 |
| 20260510125905 | 59 | 66 | 4.0 | 15.0 | 0.00 | 0.00 | 0.00 | 52 | 1018.2 |
| 20260510125405 | 59 | 69 | 4.0 | 20.0 | 0.00 | 0.00 | 0.00 | 54 | 1018.2 |
| 20260510124906 | 58 | 65 | 5.0 | 20.0 | 0.00 | 0.00 | 0.00 | 52 | 1018.4 |
| 20260510124404 | 58 | 53 | 3.0 | 15.0 | 0.00 | 0.00 | 0.00 | 54 | 1018.4 |
| 20260510123905 | 59 | 67 | 7.0 | 15.0 | 0.00 | 0.00 | 0.00 | 53 | 1018.5 |
| 20260510123405 | 59 | 66 | 6.0 | 12.0 | 0.00 | 0.00 | 0.00 | 53 | 1018.6 |
| 20260510122905 | 58 | 24 | 6.0 | 14.0 | 0.00 | 0.00 | 0.00 | 53 | 1018.6 |
| 20260510122404 | 59 | 55 | 2.0 | 14.0 | 0.00 | 0.00 | 0.00 | 53 | 1018.8 |
| 20260510121905 | 59 | 43 | 4.0 | 14.0 | 0.00 | 0.00 | 0.00 | 54 | 1018.8 |
| 20260510121405 | 59 | 48 | 6.0 | 12.0 | 0.00 | 0.00 | 0.00 | 54 | 1018.8 |
| 20260510120905 | 58 | 50 | 5.0 | 15.0 | 0.00 | 0.00 | 0.00 | 55 | 1018.8 |
| 20260510120405 | 58 | 61 | 6.0 | 16.0 | 0.00 | 0.00 | 0.00 | 53 | 1019.0 |
| 20260510115905 | 58 | 64 | 7.0 | 16.0 | 0.00 | 0.00 | 0.00 | 55 | 1019.1 |
| 20260510115405 | 57 | 55 | 7.0 | 14.0 | 0.00 | 0.00 | 0.00 | 57 | 1019.0 |
| 20260510114905 | 57 | 32 | 4.0 | 13.0 | 0.00 | 0.00 | 0.00 | 58 | 1019.1 |
| 20260510114405 | 56 | 66 | 6.0 | 13.0 | 0.00 | 0.00 | 0.00 | 57 | 1019.1 |
| 20260510113904 | 56 | 56 | 5.0 | 10.0 | 0.00 | 0.00 | 0.00 | 58 | 1019.2 |
| 20260510113405 | 56 | 27 | 3.0 | 9.0 | 0.00 | 0.00 | 0.00 | 60 | 1019.3 |
| 20260510112405 | 56 | 59 | 6.0 | 15.0 | 0.00 | 0.00 | 0.00 | 59 | 1019.4 |
| 20260510111905 | 56 | 61 | 6.0 | 15.0 | 0.00 | 0.00 | 0.00 | 60 | 1019.5 |
| 20260510111404 | 55 | 54 | 6.0 | 15.0 | 0.00 | 0.00 | 0.00 | 59 | 1019.4 |
| 20260510110905 | 55 | 44 | 6.0 | 15.0 | 0.00 | 0.00 | 0.00 | 60 | 1019.4 |
| 20260510110405 | 55 | 36 | 3.0 | 13.0 | 0.00 | 0.00 | 0.00 | 61 | 1019.5 |
| 20260510104905 | 54 | 28 | 3.0 | 12.0 | 0.00 | 0.00 | 0.00 | 62 | 1019.7 |
| 20260510104405 | 54 | 26 | 5.0 | 12.0 | 0.00 | 0.00 | 0.00 | 63 | 1019.7 |
| 20260510103904 | 54 | 29 | 5.0 | 14.0 | 0.00 | 0.00 | 0.00 | 64 | 1019.7 |
| 20260510103406 | 54 | 58 | 5.0 | 14.0 | 0.00 | 0.00 | 0.00 | 65 | 1019.7 |
| 20260510102904 | 54 | 39 | 3.0 | 12.0 | 0.00 | 0.00 | 0.00 | 66 | 1019.7 |
| 20260510102405 | 53 | 58 | 5.0 | 14.0 | 0.00 | 0.00 | 0.00 | 66 | 1019.8 |
| 20260510101906 | 53 | 46 | 5.0 | 14.0 | 0.00 | 0.00 | 0.00 | 66 | 1019.8 |
| 20260510100904 | 53 | 45 | 3.0 | 12.0 | 0.00 | 0.00 | 0.00 | 67 | 1019.8 |
| 20260510100405 | 53 | 67 | 6.0 | 12.0 | 0.00 | 0.00 | 0.00 | 67 | 1019.8 |
| 20260510095905 | 52 | 59 | 4.0 | 12.0 | 0.00 | 0.00 | 0.00 | 69 | 1019.8 |
| 20260510095406 | 52 | 37 | 5.0 | 12.0 | 0.00 | 0.00 | 0.00 | 69 | 1019.9 |
| 20260510094904 | 52 | 21 | 2.0 | 10.0 | 0.00 | 0.00 | 0.00 | 70 | 1019.9 |
| 20260510094405 | 52 | 49 | 3.0 | 13.0 | 0.00 | 0.00 | 0.00 | 71 | 1019.9 |
| 20260510093906 | 51 | 30 | 5.0 | 13.0 | 0.00 | 0.00 | 0.00 | 70 | 1020.0 |
| 20260510092404 | 51 | 36 | 3.0 | 12.0 | 0.00 | 0.00 | 0.00 | 72 | 1020.1 |
| 20260510091905 | 51 | 62 | 6.0 | 12.0 | 0.00 | 0.00 | 0.00 | 72 | 1020.1 |
| 20260510091406 | 51 | 38 | 2.0 | 16.0 | 0.00 | 0.00 | 0.00 | 73 | 1020.1 |
| 20260510090405 | 51 | 49 | 5.0 | 12.0 | 0.00 | 0.00 | 0.00 | 72 | 1020.2 |
| 20260510085904 | 51 | 48 | 5.0 | 12.0 | 0.00 | 0.00 | 0.00 | 72 | 1020.3 |
| 20260510085405 | 51 | 49 | 6.0 | 12.0 | 0.00 | 0.00 | 0.00 | 72 | 1020.3 |
| 20260510084905 | 51 | 65 | 5.0 | 12.0 | 0.00 | 0.00 | 0.00 | 73 | 1020.3 |
| 20260510083405 | 52 | 48 | 7.0 | 15.0 | 0.00 | 0.00 | 0.00 | 71 | 1020.3 |
| 20260510082905 | 52 | 56 | 5.0 | 12.0 | 0.00 | 0.00 | 0.00 | 71 | 1020.4 |
| 20260510082405 | 52 | 40 | 3.0 | 12.0 | 0.00 | 0.00 | 0.00 | 72 | 1020.4 |
| 20260510081905 | 52 | 34 | 4.0 | 12.0 | 0.00 | 0.00 | 0.00 | 73 | 1020.3 |
| 20260510080905 | 51 | 40 | 3.0 | 10.0 | 0.00 | 0.00 | 0.00 | 73 | 1020.2 |
| 20260510080405 | 51 | 23 | 3.0 | 10.0 | 0.00 | 0.00 | 0.00 | 74 | 1020.1 |
| 20260510075905 | 51 | 47 | 3.0 | 9.0 | 0.00 | 0.00 | 0.00 | 74 | 1020.0 |
| 20260510075404 | 51 | 31 | 3.0 | 10.0 | 0.00 | 0.00 | 0.00 | 74 | 1020.1 |
| 20260510074905 | 51 | 57 | 3.0 | 12.0 | 0.00 | 0.00 | 0.00 | 74 | 1020.1 |
| 20260510074405 | 50 | 30 | 4.0 | 12.0 | 0.00 | 0.00 | 0.00 | 74 | 1020.0 |
| 20260510073905 | 50 | 24 | 5.0 | 13.0 | 0.00 | 0.00 | 0.00 | 75 | 1020.0 |
| 20260510073405 | 50 | 21 | 6.0 | 13.0 | 0.00 | 0.00 | 0.00 | 75 | 1020.0 |
| 20260510072904 | 49 | 20 | 5.0 | 13.0 | 0.00 | 0.00 | 0.00 | 76 | 1020.0 |
| 20260510071905 | 49 | 8 | 4.0 | 14.0 | 0.00 | 0.00 | 0.00 | 76 | 1020.0 |
| 20260510070904 | 49 | 29 | 7.0 | 16.0 | 0.00 | 0.00 | 0.00 | 77 | 1019.9 |
| 20260510070405 | 49 | 67 | 4.0 | 17.0 | 0.00 | 0.00 | 0.00 | 77 | 1019.9 |
| 20260510065905 | 49 | 3 | 4.0 | 17.0 | 0.00 | 0.00 | 0.00 | 77 | 1019.8 |
| 20260510065406 | 48 | 32 | 5.0 | 14.0 | 0.00 | 0.00 | 0.00 | 78 | 1019.8 |
| 20260510064905 | 48 | 55 | 5.0 | 13.0 | 0.00 | 0.00 | 0.00 | 78 | 1019.8 |
| 20260510064404 | 48 | 23 | 5.0 | 12.0 | 0.00 | 0.00 | 0.00 | 79 | 1019.7 |
| 20260510063905 | 48 | 56 | 5.0 | 12.0 | 0.00 | 0.00 | 0.00 | 79 | 1019.7 |
| 20260510062404 | 48 | 0 | 3.0 | 12.0 | 0.00 | 0.00 | 0.00 | 79 | 1019.7 |
| 20260510061905 | 48 | 33 | 6.0 | 12.0 | 0.00 | 0.00 | 0.00 | 80 | 1019.7 |
| 20260510061405 | 48 | 42 | 3.0 | 8.0 | 0.00 | 0.00 | 0.00 | 80 | 1019.7 |
| 20260510055405 | 48 | 9 | 6.0 | 13.0 | 0.00 | 0.00 | 0.00 | 81 | 1019.7 |
| 20260510054405 | 48 | 44 | 6.0 | 15.0 | 0.00 | 0.00 | 0.00 | 81 | 1019.8 |
| 20260510053905 | 48 | 14 | 3.0 | 10.0 | 0.00 | 0.00 | 0.00 | 81 | 1019.8 |
| 20260510052904 | 48 | 37 | 3.0 | 12.0 | 0.00 | 0.00 | 0.00 | 81 | 1019.7 |
| 20260510052405 | 48 | 40 | 5.0 | 12.0 | 0.00 | 0.00 | 0.00 | 81 | 1019.7 |
| 20260510051904 | 48 | 41 | 3.0 | 12.0 | 0.00 | 0.00 | 0.00 | 82 | 1019.8 |
| 20260510051405 | 48 | 26 | 3.0 | 12.0 | 0.00 | 0.00 | 0.00 | 82 | 1019.8 |
| 20260510050904 | 48 | 18 | 4.0 | 9.0 | 0.00 | 0.00 | 0.00 | 82 | 1019.9 |
| 20260510050405 | 48 | 25 | 4.0 | 12.0 | 0.00 | 0.00 | 0.00 | 82 | 1019.8 |
| 20260510045905 | 48 | 20 | 3.0 | 12.0 | 0.00 | 0.00 | 0.00 | 81 | 1019.7 |
| 20260510045404 | 48 | 26 | 4.0 | 9.0 | 0.00 | 0.00 | 0.00 | 81 | 1019.7 |
| 20260510044405 | 48 | 54 | 3.0 | 12.0 | 0.00 | 0.00 | 0.00 | 81 | 1019.7 |
| 20260510043904 | 48 | 45 | 5.0 | 10.0 | 0.00 | 0.00 | 0.00 | 81 | 1019.6 |
| 20260510042404 | 49 | 53 | 5.0 | 14.0 | 0.00 | 0.00 | 0.00 | 81 | 1019.6 |
| 20260510041906 | 49 | 30 | 3.0 | 12.0 | 0.00 | 0.00 | 0.00 | 82 | 1019.5 |
| 20260510041404 | 49 | 45 | 5.0 | 12.0 | 0.00 | 0.00 | 0.00 | 82 | 1019.7 |
| 20260510040905 | 49 | 31 | 2.0 | 10.0 | 0.00 | 0.00 | 0.00 | 82 | 1019.6 |
| 20260510035404 | 49 | 40 | 1.0 | 12.0 | 0.00 | 0.00 | 0.00 | 82 | 1019.6 |
| 20260510034905 | 49 | 30 | 3.0 | 14.0 | 0.00 | 0.00 | 0.00 | 82 | 1019.7 |
| 20260510034404 | 49 | 36 | 2.0 | 14.0 | 0.00 | 0.00 | 0.00 | 82 | 1019.7 |
| 20260510033904 | 49 | 31 | 4.0 | 14.0 | 0.00 | 0.00 | 0.00 | 82 | 1019.7 |
| 20260510033405 | 49 | 32 | 3.0 | 9.0 | 0.00 | 0.00 | 0.00 | 81 | 1019.7 |
| 20260510032404 | 49 | 12 | 2.0 | 12.0 | 0.00 | 0.00 | 0.00 | 81 | 1019.8 |
| 20260510031905 | 49 | 39 | 3.0 | 12.0 | 0.00 | 0.00 | 0.00 | 81 | 1019.9 |
| 20260510031405 | 49 | 49 | 5.0 | 10.0 | 0.00 | 0.00 | 0.00 | 81 | 1020.0 |
| 20260510030406 | 50 | 45 | 2.0 | 12.0 | 0.00 | 0.00 | 0.00 | 82 | 1020.0 |
| 20260510025904 | 50 | 38 | 2.0 | 12.0 | 0.00 | 0.00 | 0.00 | 82 | 1020.0 |
| 20260510025404 | 50 | 32 | 3.0 | 12.0 | 0.00 | 0.00 | 0.00 | 82 | 1020.1 |
| 20260510024904 | 50 | 38 | 3.0 | 9.0 | 0.00 | 0.00 | 0.00 | 82 | 1020.1 |
| 20260510024404 | 50 | 62 | 3.0 | 8.0 | 0.00 | 0.00 | 0.00 | 83 | 1020.2 |
| 20260510023905 | 50 | 30 | 3.0 | 8.0 | 0.00 | 0.00 | 0.00 | 82 | 1020.1 |
| 20260510023404 | 50 | 4 | 2.0 | 6.0 | 0.00 | 0.00 | 0.00 | 82 | 1020.1 |
| 20260510022905 | 50 | 39 | 2.0 | 9.0 | 0.00 | 0.00 | 0.00 | 82 | 1020.1 |
| 20260510022405 | 50 | 24 | 3.0 | 9.0 | 0.00 | 0.00 | 0.00 | 82 | 1020.1 |
| 20260510021904 | 50 | 44 | 1.0 | 8.0 | 0.00 | 0.00 | 0.00 | 82 | 1020.1 |
| 20260510021405 | 50 | 31 | 2.0 | 12.0 | 0.00 | 0.00 | 0.00 | 82 | 1020.1 |
| 20260510020904 | 50 | 37 | 2.0 | 12.0 | 0.00 | 0.00 | 0.00 | 82 | 1020.3 |
| 20260510020405 | 50 | 41 | 2.0 | 9.0 | 0.00 | 0.00 | 0.00 | 82 | 1020.3 |
| 20260510015904 | 50 | 54 | 5.0 | 9.0 | 0.00 | 0.00 | 0.00 | 82 | 1020.3 |
| 20260510015404 | 50 | 22 | 3.0 | 10.0 | 0.00 | 0.00 | 0.00 | 82 | 1020.4 |
| 20260510014905 | 50 | 26 | 4.0 | 10.0 | 0.00 | 0.00 | 0.00 | 82 | 1020.4 |
| 20260510014404 | 50 | 53 | 3.0 | 10.0 | 0.00 | 0.00 | 0.00 | 82 | 1020.4 |
| 20260510013905 | 50 | 32 | 4.0 | 10.0 | 0.00 | 0.00 | 0.00 | 82 | 1020.3 |
| 20260510012904 | 50 | 31 | 3.0 | 9.0 | 0.00 | 0.00 | 0.00 | 82 | 1020.3 |
| 20260510012404 | 50 | 24 | 2.0 | 10.0 | 0.00 | 0.00 | 0.00 | 82 | 1020.3 |
| 20260510011904 | 50 | 45 | 5.0 | 12.0 | 0.00 | 0.00 | 0.00 | 82 | 1020.3 |
| 20260510011404 | 50 | 51 | 4.0 | 12.0 | 0.00 | 0.00 | 0.00 | 83 | 1020.3 |
| 20260510010905 | 50 | 26 | 2.0 | 8.0 | 0.00 | 0.00 | 0.00 | 83 | 1020.3 |
| 20260510010404 | 50 | 31 | 3.0 | 9.0 | 0.00 | 0.00 | 0.00 | 83 | 1020.2 |
| 20260510005405 | 49 | 8 | 2.0 | 8.0 | 0.00 | 0.00 | 0.00 | 83 | 1020.0 |
| 20260510004904 | 49 | 48 | 3.0 | 8.0 | 0.00 | 0.00 | 0.00 | 83 | 1019.9 |
| 20260510004405 | 49 | 42 | 2.0 | 8.0 | 0.00 | 0.00 | 0.00 | 83 | 1019.9 |
| 20260510003906 | 49 | 19 | 3.0 | 8.0 | 0.00 | 0.00 | 0.00 | 83 | 1019.9 |
| 20260510002905 | 50 | 14 | 2.0 | 13.0 | 0.00 | 0.00 | 0.00 | 82 | 1019.8 |
| 20260510002404 | 50 | 23 | 4.0 | 12.0 | 0.00 | 0.00 | 0.00 | 83 | 1020.0 |
| 20260510001905 | 50 | 32 | 4.0 | 12.0 | 0.00 | 0.00 | 0.00 | 83 | 1020.1 |
| 20260510001405 | 50 | 21 | 2.0 | 8.0 | 0.00 | 0.00 | 0.00 | 83 | 1020.1 |
| 20260510000904 | 50 | 42 | 3.0 | 8.0 | 0.00 | 0.00 | 0.00 | 83 | 1020.2 |
| 20260509235905 | 50 | 36 | 4.0 | 9.0 | 0.00 | 0.00 | 0.00 | 82 | 1020.2 |
| 20260509235404 | 50 | 24 | 2.0 | 9.0 | 0.00 | 0.00 | 0.00 | 82 | 1020.1 |
| 20260509234904 | 50 | 25 | 4.0 | 9.0 | 0.00 | 0.00 | 0.00 | 82 | 1020.2 |
| 20260509234404 | 50 | 15 | 4.0 | 9.0 | 0.00 | 0.00 | 0.00 | 82 | 1020.2 |
| 20260509233904 | 50 | 52 | 3.0 | 7.0 | 0.00 | 0.00 | 0.00 | 82 | 1020.2 |
| 20260509233405 | 50 | 45 | 2.0 | 9.0 | 0.00 | 0.00 | 0.00 | 82 | 1020.3 |
| 20260509232905 | 50 | 57 | 3.0 | 13.0 | 0.00 | 0.00 | 0.00 | 82 | 1020.3 |
| 20260509232404 | 50 | 34 | 3.0 | 13.0 | 0.00 | 0.00 | 0.00 | 82 | 1020.4 |
| 20260509231905 | 50 | 36 | 3.0 | 10.0 | 0.00 | 0.00 | 0.00 | 82 | 1020.5 |
| 20260509231404 | 50 | 28 | 3.0 | 10.0 | 0.00 | 0.00 | 0.00 | 81 | 1020.4 |
| 20260509230405 | 50 | 61 | 3.0 | 12.0 | 0.00 | 0.00 | 0.00 | 81 | 1020.4 |
| 20260509225904 | 50 | 21 | 5.0 | 12.0 | 0.00 | 0.00 | 0.00 | 81 | 1020.3 |
| 20260509225404 | 50 | 42 | 5.0 | 12.0 | 0.00 | 0.00 | 0.00 | 81 | 1020.3 |
| 20260509224904 | 50 | 22 | 2.0 | 8.0 | 0.00 | 0.00 | 0.00 | 80 | 1020.2 |
| 20260509224405 | 50 | 35 | 4.0 | 8.0 | 0.00 | 0.00 | 0.00 | 79 | 1020.4 |
| 20260509223904 | 50 | 37 | 3.0 | 7.0 | 0.00 | 0.00 | 0.00 | 78 | 1020.4 |
| 20260509222904 | 51 | 48 | 2.0 | 6.0 | 0.00 | 0.00 | 0.00 | 77 | 1020.4 |
| 20260509222404 | 51 | 17 | 3.0 | 6.0 | 0.00 | 0.00 | 0.00 | 76 | 1020.4 |
| 20260509221404 | 51 | 51 | 2.0 | 8.0 | 0.00 | 0.00 | 0.00 | 75 | 1020.3 |
| 20260509220905 | 51 | 47 | 3.0 | 7.0 | 0.00 | 0.00 | 0.00 | 74 | 1020.3 |
| 20260509220404 | 52 | 52 | 1.0 | 6.0 | 0.00 | 0.00 | 0.00 | 73 | 1020.3 |
| 20260509214404 | 52 | 35 | 2.0 | 8.0 | 0.00 | 0.00 | 0.00 | 71 | 1020.1 |
| 20260509213904 | 53 | 49 | 3.0 | 7.0 | 0.00 | 0.00 | 0.00 | 69 | 1020.0 |
| 20260509213404 | 53 | 12 | 2.0 | 7.0 | 0.00 | 0.00 | 0.00 | 68 | 1019.9 |
| 20260509212905 | 53 | 34 | 2.0 | 9.0 | 0.00 | 0.00 | 0.00 | 67 | 1019.8 |
| 20260509212404 | 53 | 16 | 3.0 | 10.0 | 0.00 | 0.00 | 0.00 | 67 | 1019.9 |
| 20260509211404 | 54 | 26 | 3.0 | 10.0 | 0.00 | 0.00 | 0.00 | 64 | 1019.8 |
| 20260509210905 | 54 | 48 | 3.0 | 12.0 | 0.00 | 0.00 | 0.00 | 62 | 1019.7 |
| 20260509205904 | 55 | 49 | 4.0 | 12.0 | 0.00 | 0.00 | 0.00 | 60 | 1019.6 |
| 20260509205405 | 55 | 36 | 4.0 | 9.0 | 0.00 | 0.00 | 0.00 | 57 | 1019.7 |
| 20260509204404 | 55 | 68 | 3.0 | 13.0 | 0.00 | 0.00 | 0.00 | 55 | 1019.6 |
| 20260509203906 | 55 | 60 | 3.0 | 13.0 | 0.00 | 0.00 | 0.00 | 53 | 1019.7 |
| 20260509203404 | 55 | 39 | 3.0 | 13.0 | 0.00 | 0.00 | 0.00 | 53 | 1019.7 |
| 20260509202404 | 56 | 65 | 4.0 | 12.0 | 0.00 | 0.00 | 0.00 | 53 | 1019.6 |
| 20260509201404 | 56 | 22 | 3.0 | 12.0 | 0.00 | 0.00 | 0.00 | 52 | 1019.4 |
| 20260509200905 | 56 | 26 | 3.0 | 9.0 | 0.00 | 0.00 | 0.00 | 51 | 1019.3 |
| 20260509195904 | 57 | 37 | 2.0 | 8.0 | 0.00 | 0.00 | 0.00 | 47 | 1019.3 |